Powrót do katalogu

KUIPER-00057

AktywnyŁącznośćLEO
NORAD 64517·PAYLOAD·🇺🇸 United States

Wystrzelony Jun 23, 2025 z Cape Canaveral Space Force Station

Loading…

Następne Przeloty (najbliższe 24 godziny)

TLE

ŚwieżeSource: CelesTrak SupGP

Epoka: Sep 14, 2026, 22:38 UTC

1 64517C 25134T   26257.94369213  .00002351  00000+0  30776-3 0  2570
2 64517  51.8976 113.6891 0000824 104.0775 207.0555 14.79927054    11

Śledź KUIPER-00057 w czasie rzeczywistym z AllMySat

Download on the App Store